FW4241 Weather Reports


time (UTC)temp
F
wind
direction
speed
knots
gust
knots
rain 1hr
in
rain 24hr
in
rain mn
in
humidity
%
barometer
mb
20260505194546 62 97 0.9 4.3 0.00 0.00 0.00 75 1016.7
20260505193012 62 277 0.0 2.6 0.00 0.00 0.00 76 1016.7
20260505191510 61 212 0.9 2.6 0.00 0.00 0.00 77 1016.7
20260505190045 60 220 0.0 3.5 0.00 0.00 0.00 78 1016.8
20260505184535 59 255 0.9 2.6 0.00 0.00 0.00 80 1016.7
20260505183042 58 226 1.7 3.5 0.00 0.00 0.00 81 1016.8
20260505181530 58 283 0.0 2.6 0.00 0.00 0.00 82 1016.8
20260505180028 57 291 0.0 3.5 0.00 0.00 0.00 82 1016.7
20260505174528 57 217 0.0 2.6 0.00 0.00 0.00 83 1016.8
20260505173057 57 247 0.9 3.5 0.00 0.00 0.00 82 1016.7
20260505171555 57 210 0.0 2.6 0.00 0.00 0.00 82 1016.6
20260505170027 57 234 0.9 2.6 0.00 0.00 0.00 82 1016.5
20260505164522 57 213 0.9 2.6 0.00 0.00 0.00 83 1016.4
20260505163019 56 226 0.0 1.7 0.00 0.00 0.00 84 1016.3
20260505161525 56 258 0.9 3.5 0.00 0.00 0.00 83 1016.3
20260505153110 56 124 0.0 3.5 0.00 0.00 0.00 85 1016.2
20260505151510 55 191 0.0 4.3 0.00 0.00 0.00 86 1016.2
20260505140112 54 180 0.0 2.6 0.00 0.00 0.00 88 1015.5
20260505124518 54 160 0.9 3.5 0.00 0.00 0.00 87 1015.2
20260505123015 54 148 0.9 2.6 0.00 0.00 0.00 86 1015.2
20260505121514 54 141 0.0 1.7 0.00 0.00 0.00 86 1015.2
20260505120012 54 167 0.0 0.9 0.00 0.00 0.00 86 1015.1
20260505114511 54 222 0.0 2.6 0.00 0.00 0.00 86 1015.0
20260505113010 54 218 0.9 2.6 0.00 0.00 0.00 86 1015.0
20260505111509 54 156 0.0 0.0 0.00 0.00 0.00 87 1015.1
20260505101508 53 82 0.0 0.9 0.00 0.00 0.00 88 1014.6
20260505100101 53 176 0.0 0.0 0.00 0.00 0.00 88 1014.6
20260505094603 53 176 0.0 0.0 0.00 0.00 0.00 87 1014.6
20260505093102 53 155 0.0 1.7 0.00 0.00 0.00 87 1014.5
20260505091609 54 167 0.0 0.9 0.00 0.00 0.00 86 1014.4
20260505090054 54 131 0.9 2.6 0.00 0.00 0.00 86 1014.2
20260505084551 54 252 0.0 2.6 0.00 0.00 0.00 85 1014.2
20260505083048 55 160 0.0 2.6 0.00 0.00 0.00 84 1014.1
20260505081548 56 169 0.0 1.7 0.00 0.00 0.00 83 1013.9
20260505080052 56 119 0.9 1.7 0.00 0.00 0.00 82 1013.9
20260505074542 57 171 0.0 2.6 0.00 0.00 0.00 82 1013.8
20260505073045 57 205 0.0 0.9 0.00 0.00 0.00 83 1013.5
20260505071541 57 184 0.0 1.7 0.00 0.00 0.00 83 1013.3
20260505070050 57 154 0.0 0.9 0.00 0.00 0.00 82 1013.3
20260505064511 58 135 0.0 4.3 0.00 0.00 0.00 81 1012.9
20260505063011 59 276 0.0 4.3 0.00 0.00 0.00 80 1012.8
20260505061507 60 167 0.0 1.7 0.00 0.00 0.00 79 1012.6
20260505060006 61 188 0.9 3.5 0.00 0.00 0.00 78 1012.4
20260505054506 62 178 0.0 5.2 0.00 0.00 0.00 77 1012.4
20260505053005 63 117 0.0 2.6 0.00 0.00 0.00 77 1012.3
20260505051503 63 143 0.0 0.9 0.00 0.00 0.00 77 1012.2
20260505041605 65 271 0.0 3.5 0.00 0.00 0.00 77 1011.5
20260505040059 66 182 0.0 0.0 0.00 0.00 0.00 77 1011.1
20260505034558 67 159 0.0 0.9 0.00 0.00 0.00 75 1010.9
20260505033058 68 219 0.0 0.0 0.00 0.00 0.00 74 1010.6
20260505031605 68 214 0.0 1.7 0.00 0.00 0.00 72 1010.5
20260505030055 69 220 0.0 2.6 0.00 0.00 0.00 71 1010.4
20260505024603 70 160 0.0 6.1 0.00 0.00 0.00 70 1010.3
20260505023054 71 231 0.9 5.2 0.00 0.00 0.00 68 1010.3
20260505021554 71 146 2.6 5.2 0.00 0.00 0.00 67 1010.2
20260505020050 72 122 1.7 6.1 0.00 0.00 0.00 66 1010.3
20260505014604 73 153 1.7 4.3 0.00 0.00 0.00 64 1010.2
20260505013050 74 157 1.7 6.1 0.00 0.00 0.00 63 1010.4
20260505011556 74 171 1.7 6.1 0.00 0.00 0.00 62 1010.5
20260505010043 75 197 4.3 7.8 0.00 0.00 0.00 60 1010.5
20260505004543 75 167 0.9 6.1 0.00 0.00 0.00 62 1010.6
20260505003142 74 190 0.9 6.1 0.00 0.00 0.00 61 1010.7
20260505001538 74 279 1.7 6.1 0.00 0.00 0.00 61 1010.7
20260505000048 74 117 3.5 0.0 0.00 0.00 0.00 61 1010.8
20260504234545 74 199 1.7 7.8 0.00 0.00 0.00 60 1010.7
20260504233135 74 186 3.5 7.8 0.00 0.00 0.00 60 1010.8
20260504231533 75 194 1.7 7.0 0.00 0.00 0.00 60 1010.9
20260504230030 73 208 2.6 7.8 0.00 0.00 0.00 60 1011.1
20260504224531 73 240 2.6 7.8 0.00 0.00 0.00 60 1011.3
20260504223035 72 222 3.5 7.8 0.00 0.00 0.00 61 1011.3
20260504221526 71 219 5.2 7.8 0.00 0.00 0.00 62 1011.7
20260504220021 72 234 0.9 6.1 0.00 0.00 0.00 62 1011.9
20260504214525 70 266 0.9 7.0 0.00 0.00 0.00 63 1012.0
20260504213032 70 140 1.7 7.0 0.00 0.00 0.00 63 1012.2
20260504211521 70 209 1.7 7.0 0.00 0.00 0.00 64 1012.3
20260504210015 70 168 1.7 6.1 0.00 0.00 0.00 63 1012.5
20260504204531 69 155 2.6 6.1 0.00 0.00 0.00 65 1012.7
20260504203012 67 147 2.6 7.0 0.00 0.00 0.00 69 1012.8
20260504201538 66 203 2.6 7.0 0.00 0.00 0.00 69 1012.9
20260504200036 65 203 2.6 7.8 0.00 0.00 0.00 70 1013.2